This is the latest recevied weather packets stored in our database for station/object KJ4W. If no packets are shown the sender has not sent any weather packets the latest 1 day(s).
| Time | Temp. | Humidity | Pressure | Rain* | Wind** | Luminosity | Snow |
|---|---|---|---|---|---|---|---|
| 1778031832 | 17.22° C | 97% | 1005.9 hPa | 0 mm | 3.58 m/s, 175° | - | - |
| 1778030931 | 17.22° C | 97% | 1005.9 hPa | 0 mm | 0.45 m/s, 140° | - | - |
| 1778030031 | 17.22° C | 97% | 1006 hPa | 0 mm | 0.89 m/s, 177° | - | - |
| 1778029133 | 17.22° C | 97% | 1006.2 hPa | 0 mm | 2.68 m/s, 182° | - | - |
| 1778028232 | 17.22° C | 97% | 1006.5 hPa | 0 mm | 1.79 m/s, 180° | - | - |
| 1778027331 | 17.22° C | 97% | 1006.3 hPa | 0 mm | 2.68 m/s, 173° | - | - |
| 1778026431 | 17.22° C | 97% | 1006.2 hPa | 0 mm | 2.24 m/s, 181° | - | - |
| 1778025533 | 17.22° C | 97% | 1006.5 hPa | 0 mm | 0.89 m/s, 199° | - | - |
| 1778024632 | 17.22° C | 97% | 1006.7 hPa | 0 mm | 2.68 m/s, 205° | - | - |
| 1778023731 | 17.22° C | 97% | 1006.9 hPa | 0 mm | 2.68 m/s, 167° | - | - |
| 1778022831 | 17.22° C | 97% | 1006.9 hPa | 0 mm | 2.24 m/s, 183° | - | - |
| 1778021931 | 17.22° C | 97% | 1007 hPa | 0 mm | 0.89 m/s, 159° | - | - |
| 1778021031 | 17.22° C | 97% | 1007.2 hPa | 0 mm | 1.34 m/s, 202° | - | - |
| 1778020131 | 17.22° C | 96% | 1007.3 hPa | 0 mm | 4.47 m/s, 176° | - | - |
| 1778019232 | 17.22° C | 96% | 1007.4 hPa | 0 mm | 1.34 m/s, 177° | - | - |
| 1778018332 | 17.22° C | 96% | 1007.5 hPa | 0 mm | 1.79 m/s, 171° | - | - |
| 1778017431 | 17.78° C | 96% | 1007.5 hPa | 0 mm | 4.02 m/s, 214° | - | - |
| 1778016530 | 17.78° C | 95% | 1007.3 hPa | 0 mm | 2.68 m/s, 186° | - | - |
| 1778015632 | 18.33° C | 94% | 1007.3 hPa | 0 mm | 1.34 m/s, 207° | - | - |
| 1778014732 | 18.33° C | 93% | 1007.3 hPa | 0 mm | 0 m/s | - | - |
| 1778013832 | 18.89° C | 89% | 1007.1 hPa | 0 mm | 1.79 m/s, 184° | - | - |
| 1778012930 | 20° C | 84% | 1007 hPa | 0 mm | 6.71 m/s, 201° | - | - |
| 1778012033 | 20° C | 84% | 1007 hPa | 0 mm | 0.89 m/s, 207° | - | - |
| 1778011131 | 20.56° C | 84% | 1007.3 hPa | 0 mm | 3.13 m/s, 202° | - | - |
| 1778010231 | 20.56° C | 85% | 1007.4 hPa | 0 mm | 2.68 m/s, 191° | - | - |
* Rain latest hour (hover to see other rain measurements)
** Current wind speed in m/s (hover to see current wind gust speed)